METEOR 2-17 DEB

Satellite information

Favourite Embed

Satellite Type and Status

DEBRISIN ORBIT

Key statistics

Satellite METEOR 2-17 DEB at a glance.

Uptime

13674

Days in orbit

Revolutions

≈ 14.0

Per day

Orbit

LEO

Low Earth Orbit

Inclination

82.5

Latest

Satellite identification and parameters

Extended collection of information and parameters for METEOR 2-17 DEB.

Object identification

Identified? True

Debris? True

Object name: METEOR 2-17 DEB

International designator: 1988-005E

Object number (NORAD): 28990

Object ID (CCSDS): 28990

Country: COMMONWEALTH OF INDEPENDENT STATES (CIS)

Current information (Y/N): Y

RCS size: SMALL

Orbital parameters

Period: 102.652 minutes

Inclination: 82.5155 deg

SMA: 7262.271 km

Apoapsis: 896.32 km

Periapsis: 871.952 km

RAAN: 166.9752 deg

Eccentricy: 0.0016777

Argument of periapsis: 86.0887 deg

Mean anomaly: 274.2201 deg

Mean motion: 14.02794657 rev/day

Mean motion (dot): 0.00000902 rev/day2

B* drag term: 0.00057311 1/REarth

Two-line elements (TLE)

Creation date: June 27, 2025, 3:01 a.m.

Reference frame: TEME

Reference center: EARTH

Epoch: June 26, 2025, 4:22 p.m. UTC

TLE line 0: 0 METEOR 2-17 DEB

TLE line 1: 1 28990U 88005E 25177.68256790 .00000902 00000-0 57311-3 0 9995

TLE line 2: 2 28990 82.5155 166.9752 0016777 86.0887 274.2201 14.02794657555870

Live tracking on map

Real-time ground track for satellite METEOR 2-17 DEB.

In-orbit conjunctions

A list of the most updated potential collisions computed for object METEOR 2-17 DEB.

Target Orbit TCA Probability of collision Miss distance Type
CZ-4 DEB SSO 2024-09-28 17:18:05 0.0001244935 246.0 (m) DEBRIS

Associated space launch

Second generation soviet meteorological satellite

METEOR 2-17 DEB was lifted into orbit during the mission ‘Tsiklon-3 | Meteor-2 17’, on board a Tsiklon-3 space rocket.

The launch took place on Jan. 30, 1988, 10:59 a.m. from 32/1.

For more information about the launch, click the button.

Launch to space Tsiklon-3 | Meteor-2 17
Tsiklon-3 | Meteor-2 17

Agency: N/A

Status: Launch Successful

Launch date: Jan. 30, 1988, 10:59 a.m. UTC

Rocket: Tsiklon-3

Launch pad: 32/1

Location: Plesetsk Cosmodrome, Russian Federation

...

Latest news about this satellite

There are no fresh news available about this satellite. Check back as we update our databases every day.


Newsletter sign-up

Weekly statistics, charts and insights to help you stay on top of the space industry.